Regional Weather Roundup
Issued by NWS

Home | Current Version | Previous Version | Text Only | Print | Product List | Glossary Off
Versions: 1 2 3 4 5 6 7 8 9 10 11 12 13 14 15 16 17 18 19 20 21 22 23 24 25 26 27 28 29 30 31 32 33 34 35 36 37 38 39 40 41 42 43 44 45 46 47 48 49 50

326
ASUS43 KMPX 170201
RWRMN
WEATHER ROUNDUP FOR MINNESOTA
NATIONAL WEATHER SERVICE TWIN CITIES/CHANHASSEN MN
800 PM CST MON JAN 16 2017


NOTE: "FAIR" INDICATES FEW OR NO CLOUDS BELOW 12,000 FEET WITH NO
SIGNIFICANT WEATHER AND/OR OBSTRUCTIONS TO VISIBILITY. N/A MEANS
CURRENT SKY AND/OR WEATHER CONDITIONS ARE NOT AVAILABLE.

MNZ060>063-068>070-170300-
   Twin Cities Metro

CITY           SKY/WX    TMP DP  RH WIND       PRES   REMARKS
TWIN CITIES    FRZ RAIN  30  25  81 NE6       30.00F WCI  24
ST PAUL        FRZ RAIN  30  26  85 N3        30.02F FOG
CRYSTAL        CLOUDY    30  19  63 N6        30.00F WCI  24
BLAINE         CLOUDY    30  21  69 NE5       30.01F WCI  25
LAKEVILLE      MIX PCPN  28  28 100 NE5       29.98F WCI  23
EDEN PRAIRIE   FRZ RAIN  32  27  81 NE7       29.98F WCI  26
SOUTH ST PAUL  MIX PCPN  31  26  84 CALM      30.00F
LAKE ELMO      MIX PCPN  30  28  93 NE5       30.01F WCI  25
$$
MNZ001>005-007-008-013>017-022>024-027-028-170300-
   Northwest Minnesota

CITY           SKY/WX    TMP DP  RH WIND       PRES   REMARKS
BEMIDJI        CLOUDY    11   9  89 W6        30.00F WCI   2
HALLOCK        CLOUDY     3   0  85 SE5       30.03S WCI  -6
ROSEAU         CLOUDY     9   3  78 CALM      30.02F
WARROAD        CLOUDY     9   3  78 CALM      30.02F
THIEF RVR FALL CLOUDY     8   6  92 S5        30.03F WCI   0
CROOKSTON      CLOUDY     7   5  92 S6        30.05F WCI  -3
FOSSTON        CLOUDY     5   0  78 SE3       30.03F
DETROIT LAKES  CLOUDY    16  10  79 N5        30.03F WCI   9
MOORHEAD       CLOUDY     9   5  85 S3        30.06F
PARK RAPIDS    CLOUDY    13   8  81 CALM      29.99F HAZE
MAHNOMEN       FAIR      13   9  87 SE3       30.02F
$$
MNZ006-009>011-018-025>026-170300-
   North Central Minnesota

CITY           SKY/WX    TMP DP  RH WIND       PRES   REMARKS
BAUDETTE       CLOUDY     9   5  84 CALM      30.00F
FLAG ISLAND    CLOUDY     9   7  92 NW5       30.02S WCI   0
INTL FALLS     CLOUDY     9   5  84 CALM      30.02F
WASKISH        CLOUDY     9   7  92 CALM      30.02S
BIG FORK       CLOUDY    16  14  93 CALM      30.02F
LONGVILLE      CLOUDY    18  16  93 CALM      30.00F
GRAND RAPIDS   CLOUDY    21  16  81 CALM      30.02F
CRANE LAKE     CLOUDY     9   9 100 CALM      30.06S
ORR            CLOUDY    23  18  80 CALM      30.01F
COOK           CLOUDY    18  14  86 CALM      30.03S
WALKER         FAIR      21  17  85 CALM      30.00F
$$
MNZ012-019>021-037-170300-
   Northeast Minnesota

CITY           SKY/WX    TMP DP  RH WIND       PRES   REMARKS
DULUTH         CLOUDY    22  15  75 CALM      30.01F
ELY            CLOUDY    16  16 100 CALM      30.02F
HIBBING        CLOUDY    11   9  92 CALM      30.01F FOG
EVELETH        CLOUDY    14  11  87 CALM      30.03F
DULUTH HARBOR  CLOUDY    25  19  80 CALM      30.06F
TWO HARBORS    CLOUDY    27  19  74 CALM      30.01F
SILVER BAY     CLOUDY    21  19  93 CALM      30.02F
GRAND MARAIS     N/A     23  19  85 N3        30.06F
G MARAIS ARPRT CLOUDY    19  16  86 CALM      30.02F FOG
$$
MNZ029>031-032-039>041-046>048-054>057-064-170300-
   West Central Minnesota

CITY           SKY/WX    TMP DP  RH WIND       PRES   REMARKS
FERGUS FALLS   CLOUDY    12  10  92 N7        30.08F WCI   2
WHEATON        CLOUDY    16  12  86 W3        30.07F
MORRIS         CLOUDY    14  12  92 NW6       30.02F FOG     WCI   5
ALEXANDRIA     CLOUDY    18  15  88 CALM      30.01F
ELBOW LAKE     FAIR      13  12  95 CALM      30.04S FOG
WADENA         CLOUDY    16  16 100 CALM      30.01S
GLENWOOD       FOG       27  27 100 CALM      30.02S VSB 3/4
APPLETON       CLOUDY    23  21  93 W3        30.03F FOG
ORTONVILLE     CLEAR     12   9  85 CALM      30.04S FOG
MADISON        CLOUDY    21  18  86 NW8       30.04F WCI  12
WILLMAR        CLOUDY    30  30 100 CALM      30.02F FOG
$$
MNZ033>034-036-042>043-049>051-058-059-170300-
   Central Minnesota

CITY           SKY/WX    TMP DP  RH WIND       PRES   REMARKS
ST CLOUD       CLOUDY    24  20  84 CALM      30.02F
SAUK CENTRE    CLOUDY    27  26  99 CALM      30.02F FOG
PAYNESVILLE    CLOUDY    28  28 100 N5        30.02F FOG     WCI  23
AITKIN         CLOUDY    18  10  73 CALM      30.01F
PINE RIVER     CLOUDY    16  12  86 CALM      30.04F
BRAINERD       CLOUDY    15  12  88 CALM      30.02F FOG
STAPLES        CLOUDY    12  10  92 CALM      30.01F
LONG PRAIRIE   CLOUDY    25  21  86 CALM      30.02F
LITTLE FALLS   CLOUDY    28  23  80 CALM      30.02F
LITCHFIELD     CLOUDY    30  27  86 N5        30.01F WCI  25
BUFFALO        CLOUDY    29  22  75 N5        30.01F WCI  24
MAPLE LAKE     CLOUDY    29  24  79 N5        30.02F WCI  24
HUTCHINSON     CLOUDY    31  27  84 N5        30.01S WCI  26
$$
MNZ037-044-045-052-053-170300-
   East Central Minnesota

CITY           SKY/WX    TMP DP  RH WIND       PRES   REMARKS
PRINCETON      CLOUDY    25  19  80 N5        30.02F WCI  19
MORA           CLOUDY    19  14  79 CALM      30.05F
CAMBRIDGE      CLOUDY    28  18  64 CALM      30.01F
RUSH CITY      CLOUDY    25  19  80 VRB6      30.03F WCI  18
MOOSE LAKE     CLOUDY    23  18  80 CALM      30.01F
HINCKLEY       FAIR      23  19  86 CALM      30.03F
CLOQUET        CLOUDY    21  18  86 CALM      30.02F
MCGREGOR       CLOUDY    19  18  93 CALM      30.02F
$$
MNZ071>073-080-081-089-090-097-098-170300-
   Southwest Minnesota

CITY           SKY/WX    TMP DP  RH WIND       PRES   REMARKS
MONTEVIDEO     CLOUDY    25  21  86 N6        30.04F FOG     WCI  18
GRANITE FALLS  CLOUDY    28  27  96 NW9       30.03F FOG     WCI  19
CANBY            N/A     24  20  86 CALM      30.03F
REDWOOD FALLS  CLOUDY    31  29  92 N6        30.00F FOG     WCI  25
OLIVIA         CLOUDY    32  30  93 N6        30.00F WCI  26
PIPESTONE      FOG       28  28 100 N8        29.97R VSB 1   WCI  20
WINDOM         MIX PCPN  30  30 100 N10       29.96F WCI  21
WORTHINGTON    LGT SNOW  31  29  92 N9        29.95F FOG     WCI  23
JACKSON        LGT RAIN  30  30 100 N7        29.95F WCI  23
TRACY          FOG       28  28  99 N9        29.99F VSB 1   WCI  19
SLAYTON        MIX PCPN  28  28 100 N10       29.98S VSB 1/2 WCI  18
$$
MNZ065>067-074>077-082>085-091>093-170300-
   South Central Minnesota

CITY           SKY/WX    TMP DP  RH WIND       PRES   REMARKS
MANKATO        LGT SNOW  31  29  92 NE7       29.97F FOG     WCI  24
NEW ULM        MIX PCPN  30  30 100 NE5       29.98F WCI  25
ST JAMES       MIX PCPN  30  30 100 N6        29.98F WCI  24
FAIRMONT       MIX PCPN  31  30  96 N7        29.96F FOG     WCI  24
GLENCOE        MIX PCPN  32  32 100 N5        29.99F WCI  27
FARIBAULT      MIX PCPN  30  28  93 N5        29.97F WCI  25
OWATONNA       LGT RAIN  32  30  93 CALM      29.96F
WASECA         MIX PCPN  32  32 100 NE3       29.97S
ALBERT LEA     MIX PCPN  34  32  93 NE5       29.94F WCI  30
$$
MNZ078>079-086>088-094>096-170300-
   Southeast Minnesota

CITY           SKY/WX    TMP DP  RH WIND       PRES   REMARKS
ROCHESTER      FRZ RAIN  31  31 100 E12       29.94F FOG     WCI  22
RED WING       MIX PCPN  32  28  86 E3        29.98F
STANTON        MIX PCPN  32  30  91 NE7       29.96F WCI  26
DODGE CENTER   MIX PCPN  30  30 100 CALM      29.94F
WINONA         MIX PCPN  34  34 100 CALM      29.98F
AUSTIN         MIX PCPN  32  30  93 NE3       29.93F
PRESTON        MIX PCPN  31  30  96 E7        29.94F WCI  24
$$
ABBREVIATIONS USED IN REMARKS
   TC - TEMPERATURES IN CELSIUS
  WCI - WIND CHILL INDEX
   HX - HEAT INDEX
  VSB - VISIBILITY
$$




USA.gov is the U.S. government's official web portal to all federal, state and local government web resources and services.